SCP
-0 -0 -0 -0 -0 -0 -0 -0 -0 -0 -0 -0 -0 -0 -0 -0 -0 0 0 0 0 0 0 0 0 0 0 0 0 0 0 0 0 0 0 0 0 0 0 0 0 0 0 0 0
-0 -0 -0 -0 -0 -0 -0 -0 -0 -0 -0 -0 -0 -0 -0 -0 0 -0 -0 0 0 0 0 0 0 0 0 0 0 0 0 0 0 0 0 -0 -0 -0 0 0 0 0 0 0 0
-0 -0 -0 -0 -0 -0 -0 -0 -0 -0 -0 -0 -0 -0 -0 0 0 0 -0 -0 -0 0 0 0 0 0 0 0 0 0 0 0 0 0 0 0 0 0 -0 0 0 0 0 0 -0
-0 -0 -0 -0 -0 -0 -0 -0 -0 -0 -0 -0 -0 -0 -0 0 -0 0 -0 0 0 0 0 -0 -0 0 0 0 0 0 0 0 0 0 0 0 0 0 0 0 0 0 0 0 0
-0 -0 -0 -0 -0 -0 -0 -0 -0 -0 -0 -0 -0 -0 0 -0 0 0 0 0 0 0 -0 -0 -0 -0 0 0 0 0 -0 0 -0 0 0 0 0 -0 0 0 0 0 0 0 0
-0 -0 -0 -0 -0 -0 -0 -0 -0 -0 -0 -0 -0 -0 -0 -0 -0 -0 0 0 -0 -0 0 0 0 0 0 0 0 0 0 0 0 0 0 -0 -0 -0 -0 0 0 0 0 0 0
-0 -0 -0 -0 -0 -0 -0 -0 -0 -0 -0 -0 -0 -0 0 -0 0 0 0 0 0 0 0 0 0 0 0 0 0 0 0 0 0 -0 -0 -0 -0 -0 -0 -0 0 0 0 0 0
-0 -0 -0 -0 -0 -0 -0 -0 -0 -0 -0 -0 -0 0 -0 -0 -0 0 0 0 0 0 0 0 0 0 0 0 0 0 0 0 0 0 -0 0 0 0 0 0 0 0 0 0 0
-0 -0 -0 -0 -0 -0 -0 -0 -0 -0 0 -0 -0 0 -0 -0 0 0 0 0 0 0 0 0 0 0 0 0 0 0 0 0 0 0 0 0 0 0 0 0 0 0 0 0 0
-0 -0 -0 -0 -0 -0 -0 -0 0 0 0 -0 -0 0 -0 0 0 0 0 0 0 0 0 0 0 0 0 0 0 0 0 0 0 0 0 0 0 0 0 0 0 0 0 0 0
-0 -0 -0 -0 -0 -0 -0 0 0 0 0 0 0 -0 -0 -0 0 0 0 0 0 0 0 0 0 0 0 0 0 0 0 0 0 0 0 0 0 0 0 0 0 0 0 0 0
-0 -0 -0 -0 -0 -0 0 0 0 0 0 0 0 -0 -0 -0 -0 0 0 0 0 0 0 0 0 0 0 0 0 0 0 0 0 0 0 0 0 0 0 0 0 0 0 0 0
-0 -0 -0 -0 -0 0 0 0 0 0 0 0 -0 -0 -0 0 0 -0 0 0 0 0 0 0 0 0 0 0 0 0 0 0 0 0 0 0 0 0 0 0 0 0 0 0 0
-0 -0 -0 -0 0 0 0 0 -0 0 0 0 0 -0 0 0 -0 0 0 0 0 0 0 0 0 0 0 0 0 0 0 0 0 0 0 0 0 0 0 0 0 0 0 0 0
-0 -0 -0 0 0 0 0 0 -0 0 0 0 0 0 0 0 0 0 0 0 0 0 0 0 0 0 0 0 0 0 0 0 0 0 0 0 0 0 0 0 0 0 0 0 0
-0 0 -0 0 0 0 -0 -0 0 0 0 0 0 0 0 0 0 0 0 0 0 0 0 0 0 0 0 0 0 0 0 0 0 0 0 0 0 0 0 0 0 0 0 0 0
-0 -0 -0 -0 0 -0 -0 0 0 0 0 0 0 0 0 0 0 0 0 0 0 0 0 0 0 0 0 0 0 0 0 0 0 0 0 0 0 0 0 0 0 0 0 0 0
-0 -0 -0 -0 0 0 0 0 0 0 0 0 0 0 0 0 0 0 0 0 0 0 0 0 0 0 0 0 0 0 0 0 0 0 0 0 0 0 0 0 0 0 0 0 0
0 0 0 0 0 0 0 0 0 0 0 0 0 0 0 0 0 0 0 0 0 0 0 0 0 0 0 0 0 0 0 0 0 0 0 0 0 0 0 0 0 0 0 0 -0
0 0 0 0 0 0 0 0 0 0 0 0 0 0 0 0 0 0 0 0 0 0 0 0 0 0 0 0 0 0 0 0 0 0 0 0 0 0 0 0 0 0 -0 -0 -0
0 0 0 0 0 0 0 0 0 0 0 0 0 0 0 0 0 0 0 0 0 0 0 0 0 0 0 0 0 0 0 0 0 0 0 0 0 0 0 0 0 0 -0 -0 -0
0 0 0 0 0 0 0 0 -0 -0 0 0 0 0 0 0 0 0 0 0 0 0 0 0 0 0 0 0 0 0 0 0 0 0 0 0 0 0 0 0 0 0 -0 -0 -0
-0 0 0 0 0 0 0 0 0 0 0 0 0 0 0 0 0 0 0 0 0 0 0 0 0 0 0 0 0 0 0 0 0 0 0 0 0 0 0 0 0 0 0 0 0
-0 0 0 0 0 0 -0 0 0 0 0 0 0 0 0 0 0 0 0 0 0 0 0 0 0 0 0 0 0 0 0 0 0 0 0 0 0 0 0 0 0 0 0 0 0
-0 0 0 0 0 0 0 0 0 0 0 0 0 0 0 0 0 0 0 0 0 0 0 0 0 0 0 0 0 0 0 0 0 0 0 0 0 0 0 0 0 0 0 -0 0
-0 0 0 0 0 0 0 0 0 0 0 0 0 0 0 0 0 0 0 0 0 0 0 0 0 0 0 0 0 0 0 0 0 0 0 0 0 0 0 0 0 0 0 -0 -0
-0 0 0 0 0 0 0 0 0 0 0 0 0 0 0 0 0 0 0 0 0 0 0 0 0 0 0 0 0 0 0 0 0 0 0 0 0 0 0 0 0 0 -0 -0 -0
Wind_Speed_500mb
24 21 20 20 21 20 16 16 14 12 14 20 25 22 21 20 24 17 18 17 17 21 25 19 9 14 4 4 2 2 8 2 5 4 12 16 10 15 14 29 23 29 13 21 34
23 20 19 19 21 20 18 17 16 16 21 26 23 20 19 25 36 40 29 22 23 27 33 31 18 15 7 6 5 8 7 11 7 4 8 7 10 15 11 31 32 50 37 38 39
21 19 17 18 20 20 18 19 19 22 25 24 18 15 18 10 24 27 28 28 34 39 25 34 27 18 14 10 20 4 4 3 7 13 19 26 24 7 2 10 37 44 55 49 45
20 17 17 18 19 17 16 16 18 23 22 18 14 17 20 13 9 20 27 28 27 33 32 22 28 9 9 7 18 4 2 3 7 25 19 11 29 32 16 41 49 49 49 51 54
21 17 17 18 18 14 13 15 18 21 19 14 12 16 18 20 19 19 19 25 30 26 34 36 35 11 6 7 11 7 8 34 46 48 46 18 20 11 25 55 51 38 37 51 53
22 18 17 19 17 13 11 12 16 18 15 10 14 17 19 15 18 15 18 20 19 24 28 31 24 21 7 6 5 12 22 34 32 41 29 14 20 24 52 58 55 51 57 62 59
20 16 16 18 15 12 10 9 11 12 8 7 10 15 10 10 13 10 12 13 16 10 15 16 21 25 25 14 27 19 16 21 15 23 11 34 16 22 46 60 67 70 67 64 51
18 13 12 15 13 12 10 8 8 8 5 2 8 14 3 6 3 3 9 14 13 11 14 17 19 13 3 10 14 10 8 6 15 15 14 9 21 12 38 48 55 67 70 68 67
22 10 8 11 11 13 10 6 3 6 6 7 9 11 0 3 7 1 5 12 16 13 15 19 20 2 3 8 10 13 6 8 12 13 7 1 16 19 53 52 52 60 66 69 69
26 9 4 6 10 10 7 1 2 4 6 12 17 7 1 1 6 7 6 9 12 20 10 7 4 6 7 9 5 10 8 11 13 10 4 16 17 16 57 50 55 62 63 62 64
27 11 1 3 9 11 11 1 5 0 13 14 19 15 24 9 10 6 9 7 5 13 6 8 8 3 11 11 12 7 9 14 11 12 8 18 20 23 43 43 45 50 50 54 54
30 13 3 5 6 7 14 15 13 15 17 27 28 29 27 21 12 11 11 6 4 3 2 12 1 12 9 10 10 10 9 17 12 10 8 21 28 28 16 24 26 27 39 45 53
30 10 5 10 9 11 12 12 10 17 5 15 8 24 15 12 14 14 26 9 5 2 5 7 13 11 5 12 15 9 13 8 13 11 11 15 16 8 17 11 29 47 44 45 48
31 9 11 11 8 10 17 11 18 9 8 8 3 3 10 10 8 16 30 15 3 12 6 9 9 9 13 8 6 8 7 9 14 10 19 8 15 9 9 15 17 42 52 53 48
32 9 13 10 8 9 13 14 11 5 7 3 3 1 2 10 11 7 22 18 13 11 9 16 7 13 8 5 4 12 8 14 16 10 4 11 3 12 12 11 14 25 43 54 58
33 9 9 15 2 11 19 7 7 9 4 3 4 5 7 7 10 3 5 5 4 5 5 14 8 4 7 1 5 9 10 6 9 4 3 7 6 8 8 7 8 19 42 51 65
33 10 12 10 9 21 11 2 9 8 6 8 5 8 4 9 14 16 8 6 4 11 8 11 9 4 7 7 10 17 15 10 11 8 10 4 10 17 6 3 2 9 33 42 53
27 13 10 5 15 19 10 9 8 4 6 5 7 9 8 14 7 12 8 11 10 7 3 1 13 4 1 6 7 5 10 8 11 7 26 14 12 10 8 10 11 13 21 34 50
25 7 2 5 14 21 7 9 7 2 4 6 9 8 7 5 4 15 9 4 2 3 2 7 9 7 14 7 10 6 6 8 6 8 7 6 12 8 4 7 6 13 16 30 27
35 15 5 6 13 15 9 4 3 10 6 2 1 2 4 5 6 12 6 5 6 9 3 8 14 12 2 6 2 12 8 5 5 7 9 10 16 19 5 6 10 12 27 38 22
25 6 3 9 12 6 6 6 7 16 22 6 9 5 4 4 1 4 9 11 11 9 7 5 7 8 3 9 12 8 3 5 4 7 7 12 16 9 13 10 11 18 37 51 35
25 6 9 6 7 6 3 7 14 8 21 6 5 9 9 6 5 7 11 10 10 1 5 5 5 13 24 20 16 12 14 12 8 11 8 9 27 16 19 12 21 40 55 48 35
32 10 15 5 5 7 13 10 7 13 10 12 10 4 5 2 6 8 8 4 18 11 10 4 5 17 21 11 7 2 8 8 5 3 22 16 19 8 14 31 41 32 44 43 35
17 8 10 17 13 5 9 8 12 25 6 12 10 13 12 6 6 9 9 7 27 31 39 12 6 15 20 28 10 17 21 14 12 8 30 25 48 40 18 18 24 27 38 41 35
17 7 8 8 9 11 3 6 9 13 8 29 9 11 8 8 9 9 7 13 13 28 2 5 10 13 25 36 31 34 39 28 27 33 19 41 32 36 26 25 16 24 29 41 51
12 12 14 14 17 10 11 9 10 9 5 7 6 11 5 6 5 10 9 9 12 11 7 3 12 9 19 29 29 28 39 39 34 34 27 35 40 13 16 15 23 31 37 44 50
16 8 7 8 11 4 3 9 10 13 4 19 5 6 8 5 34 53 57 61 39 20 2 7 3 4 9 12 19 19 20 17 8 10 10 13 14 6 8 11 27 41 46 53 53
Wind_Direction_500mb
51 55 58 50 38 37 41 31 37 54 87 114 120 106 83 55 50 93 80 93 52 31 19 18 50 18 174 74 139 152 59 328 268 15 283 315 14 350 347 337 343 342 344 346 347
46 52 49 41 34 33 33 37 49 75 98 114 114 96 58 71 73 70 82 71 43 25 37 37 23 26 69 47 53 87 110 219 225 300 280 306 347 316 342 343 332 326 307 312 326
40 44 42 36 30 30 36 43 65 91 108 111 98 55 29 107 82 60 55 43 37 33 40 36 26 58 53 49 9 23 171 321 338 325 336 329 324 302 19 320 305 308 313 316 315
31 33 34 31 30 31 42 57 80 101 109 100 71 41 43 43 94 61 60 44 36 33 41 32 34 55 58 40 345 90 349 39 305 321 324 298 312 314 298 290 303 300 301 303 307
25 28 26 28 28 36 57 77 101 112 111 94 42 26 57 66 81 76 46 33 34 28 19 18 33 44 42 332 358 57 309 330 331 329 318 306 289 253 282 322 309 295 292 296 299
21 25 25 22 26 45 67 87 108 114 107 77 52 51 58 66 108 65 36 19 13 16 16 17 15 6 48 356 74 309 319 329 325 325 329 348 317 354 322 338 332 317 295 288 289
20 26 27 23 37 64 86 95 130 130 117 74 39 18 54 70 110 61 38 38 10 348 331 347 349 359 342 348 345 336 353 347 354 346 315 343 346 329 335 335 325 321 314 305 289
12 22 29 27 58 76 93 98 144 169 184 334 348 1 65 88 171 19 12 25 15 307 313 335 314 310 294 323 343 4 56 38 302 331 301 35 295 292 324 313 308 311 311 308 308
4 4 25 39 80 83 81 93 139 225 246 279 316 352 120 192 225 127 354 19 16 0 311 297 300 237 81 76 3 4 252 269 298 247 271 137 281 279 305 310 298 301 299 299 303
2 347 7 52 105 59 24 7 225 254 264 286 287 306 292 78 214 294 299 324 319 346 16 41 118 53 32 67 278 263 276 260 264 269 245 289 268 278 297 299 291 295 298 302 303
359 347 249 98 111 68 52 20 20 68 286 263 281 274 284 289 282 297 270 248 311 50 33 16 58 205 246 202 216 234 228 254 239 251 311 269 290 289 291 293 288 302 322 330 321
356 349 193 164 129 82 56 51 14 321 296 286 263 256 259 267 274 283 188 208 75 316 326 15 285 224 258 251 239 235 283 291 293 271 291 286 294 284 284 277 319 353 348 346 339
360 1 166 144 111 69 59 28 3 343 320 298 225 228 246 249 241 257 198 193 171 249 234 153 244 292 276 328 322 301 256 270 272 298 242 297 287 268 306 324 10 0 350 351 350
5 18 157 146 93 126 48 24 343 312 57 287 231 280 238 215 259 278 233 215 157 221 247 232 263 262 321 284 255 302 253 274 288 320 303 114 293 300 312 331 21 355 357 356 353
3 19 168 167 121 47 350 328 342 298 52 211 161 352 312 206 301 254 210 197 198 218 121 247 249 287 269 205 266 243 304 256 263 240 15 320 351 268 352 335 350 341 351 8 20
2 21 153 161 149 321 316 304 315 45 45 24 85 358 357 286 287 273 157 237 293 178 233 246 264 208 195 194 20 301 329 307 36 61 35 230 84 269 299 279 318 340 354 5 21
6 42 147 174 306 324 331 308 41 95 336 359 343 350 83 331 8 27 10 349 272 337 326 327 291 87 67 26 346 22 34 332 343 354 237 234 311 247 291 199 61 312 355 1 12
15 64 120 114 7 349 349 49 76 333 13 15 344 350 98 19 357 2 11 358 26 68 335 58 329 342 67 148 252 296 135 149 290 277 292 288 245 253 216 195 232 307 343 5 5
0 347 305 352 352 343 347 64 197 329 308 337 333 59 353 358 7 21 341 247 151 81 113 301 260 270 282 190 121 291 241 190 239 227 324 250 297 305 51 354 310 307 328 323 337
346 338 353 309 328 335 67 226 261 334 320 65 112 102 315 307 24 25 310 258 217 221 153 270 291 243 283 68 207 186 170 6 4 297 284 292 288 264 198 263 283 313 319 317 296
353 36 106 338 320 342 106 246 303 354 14 190 208 247 235 249 135 226 251 306 28 360 317 269 164 260 48 202 247 282 283 102 168 171 212 306 270 227 235 234 287 300 322 316 294
2 39 349 327 5 30 32 297 312 311 351 301 154 194 203 200 239 237 233 233 44 93 329 300 219 272 270 255 255 168 203 158 142 257 220 253 266 258 269 244 285 309 306 312 314
342 313 23 2 71 346 326 312 306 353 340 345 347 346 55 132 336 224 245 264 19 41 8 332 308 311 308 354 357 179 200 173 125 57 251 263 273 259 324 329 316 337 324 308 328
350 355 3 57 77 67 6 301 334 336 40 13 29 48 11 314 240 282 267 295 337 320 299 291 200 207 258 271 245 266 243 224 199 223 277 245 277 284 295 313 319 330 343 344 348
11 36 10 319 354 344 286 310 341 356 4 27 32 38 309 296 301 273 329 319 287 284 242 106 241 225 261 268 270 261 267 249 220 237 233 277 271 280 280 264 271 299 321 334 336
22 8 344 308 321 336 4 22 8 337 308 3 39 310 308 269 212 286 272 232 228 293 73 337 277 291 279 268 265 271 270 271 256 251 253 261 267 273 302 231 274 291 318 319 313
21 3 324 323 346 38 30 318 22 0 72 67 10 336 301 252 298 284 274 269 254 269 242 216 186 12 268 350 318 290 264 260 234 217 217 242 259 215 263 281 297 303 307 302 309
Wind_Speed_850mb
24 21 20 20 21 20 16 16 14 12 14 20 25 22 21 20 24 17 18 17 17 21 25 19 9 14 4 4 2 2 8 2 5 4 12 16 10 15 14 29 23 29 13 21 34
23 20 19 19 21 20 18 17 16 16 21 26 23 20 19 25 36 40 29 22 23 27 33 31 18 15 7 6 5 8 7 11 7 4 8 7 10 15 11 31 32 50 37 38 39
21 19 17 18 20 20 18 19 19 22 25 24 18 15 18 10 24 27 28 28 34 39 25 34 27 18 14 10 20 4 4 3 7 13 19 26 24 7 2 10 37 44 55 49 45
20 17 17 18 19 17 16 16 18 23 22 18 14 17 20 13 9 20 27 28 27 33 32 22 28 9 9 7 18 4 2 3 7 25 19 11 29 32 16 41 49 49 49 51 54
21 17 17 18 18 14 13 15 18 21 19 14 12 16 18 20 19 19 19 25 30 26 34 36 35 11 6 7 11 7 8 34 46 48 46 18 20 11 25 55 51 38 37 51 53
22 18 17 19 17 13 11 12 16 18 15 10 14 17 19 15 18 15 18 20 19 24 28 31 24 21 7 6 5 12 22 34 32 41 29 14 20 24 52 58 55 51 57 62 59
20 16 16 18 15 12 10 9 11 12 8 7 10 15 10 10 13 10 12 13 16 10 15 16 21 25 25 14 27 19 16 21 15 23 11 34 16 22 46 60 67 70 67 64 51
18 13 12 15 13 12 10 8 8 8 5 2 8 14 3 6 3 3 9 14 13 11 14 17 19 13 3 10 14 10 8 6 15 15 14 9 21 12 38 48 55 67 70 68 67
22 10 8 11 11 13 10 6 3 6 6 7 9 11 0 3 7 1 5 12 16 13 15 19 20 2 3 8 10 13 6 8 12 13 7 1 16 19 53 52 52 60 66 69 69
26 9 4 6 10 10 7 1 2 4 6 12 17 7 1 1 6 7 6 9 12 20 10 7 4 6 7 9 5 10 8 11 13 10 4 16 17 16 57 50 55 62 63 62 64
27 11 1 3 9 11 11 1 5 0 13 14 19 15 24 9 10 6 9 7 5 13 6 8 8 3 11 11 12 7 9 14 11 12 8 18 20 23 43 43 45 50 50 54 54
30 13 3 5 6 7 14 15 13 15 17 27 28 29 27 21 12 11 11 6 4 3 2 12 1 12 9 10 10 10 9 17 12 10 8 21 28 28 16 24 26 27 39 45 53
30 10 5 10 9 11 12 12 10 17 5 15 8 24 15 12 14 14 26 9 5 2 5 7 13 11 5 12 15 9 13 8 13 11 11 15 16 8 17 11 29 47 44 45 48
31 9 11 11 8 10 17 11 18 9 8 8 3 3 10 10 8 16 30 15 3 12 6 9 9 9 13 8 6 8 7 9 14 10 19 8 15 9 9 15 17 42 52 53 48
32 9 13 10 8 9 13 14 11 5 7 3 3 1 2 10 11 7 22 18 13 11 9 16 7 13 8 5 4 12 8 14 16 10 4 11 3 12 12 11 14 25 43 54 58
33 9 9 15 2 11 19 7 7 9 4 3 4 5 7 7 10 3 5 5 4 5 5 14 8 4 7 1 5 9 10 6 9 4 3 7 6 8 8 7 8 19 42 51 65
33 10 12 10 9 21 11 2 9 8 6 8 5 8 4 9 14 16 8 6 4 11 8 11 9 4 7 7 10 17 15 10 11 8 10 4 10 17 6 3 2 9 33 42 53
27 13 10 5 15 19 10 9 8 4 6 5 7 9 8 14 7 12 8 11 10 7 3 1 13 4 1 6 7 5 10 8 11 7 26 14 12 10 8 10 11 13 21 34 50
25 7 2 5 14 21 7 9 7 2 4 6 9 8 7 5 4 15 9 4 2 3 2 7 9 7 14 7 10 6 6 8 6 8 7 6 12 8 4 7 6 13 16 30 27
35 15 5 6 13 15 9 4 3 10 6 2 1 2 4 5 6 12 6 5 6 9 3 8 14 12 2 6 2 12 8 5 5 7 9 10 16 19 5 6 10 12 27 38 22
25 6 3 9 12 6 6 6 7 16 22 6 9 5 4 4 1 4 9 11 11 9 7 5 7 8 3 9 12 8 3 5 4 7 7 12 16 9 13 10 11 18 37 51 35
25 6 9 6 7 6 3 7 14 8 21 6 5 9 9 6 5 7 11 10 10 1 5 5 5 13 24 20 16 12 14 12 8 11 8 9 27 16 19 12 21 40 55 48 35
32 10 15 5 5 7 13 10 7 13 10 12 10 4 5 2 6 8 8 4 18 11 10 4 5 17 21 11 7 2 8 8 5 3 22 16 19 8 14 31 41 32 44 43 35
17 8 10 17 13 5 9 8 12 25 6 12 10 13 12 6 6 9 9 7 27 31 39 12 6 15 20 28 10 17 21 14 12 8 30 25 48 40 18 18 24 27 38 41 35
17 7 8 8 9 11 3 6 9 13 8 29 9 11 8 8 9 9 7 13 13 28 2 5 10 13 25 36 31 34 39 28 27 33 19 41 32 36 26 25 16 24 29 41 51
12 12 14 14 17 10 11 9 10 9 5 7 6 11 5 6 5 10 9 9 12 11 7 3 12 9 19 29 29 28 39 39 34 34 27 35 40 13 16 15 23 31 37 44 50
16 8 7 8 11 4 3 9 10 13 4 19 5 6 8 5 34 53 57 61 39 20 2 7 3 4 9 12 19 19 20 17 8 10 10 13 14 6 8 11 27 41 46 53 53
Wind_Direction_850mb
51 55 58 50 38 37 41 31 37 54 87 114 120 106 83 55 50 93 80 93 52 31 19 18 50 18 174 74 139 152 59 328 268 15 283 315 14 350 347 337 343 342 344 346 347
46 52 49 41 34 33 33 37 49 75 98 114 114 96 58 71 73 70 82 71 43 25 37 37 23 26 69 47 53 87 110 219 225 300 280 306 347 316 342 343 332 326 307 312 326
40 44 42 36 30 30 36 43 65 91 108 111 98 55 29 107 82 60 55 43 37 33 40 36 26 58 53 49 9 23 171 321 338 325 336 329 324 302 19 320 305 308 313 316 315
31 33 34 31 30 31 42 57 80 101 109 100 71 41 43 43 94 61 60 44 36 33 41 32 34 55 58 40 345 90 349 39 305 321 324 298 312 314 298 290 303 300 301 303 307
25 28 26 28 28 36 57 77 101 112 111 94 42 26 57 66 81 76 46 33 34 28 19 18 33 44 42 332 358 57 309 330 331 329 318 306 289 253 282 322 309 295 292 296 299
21 25 25 22 26 45 67 87 108 114 107 77 52 51 58 66 108 65 36 19 13 16 16 17 15 6 48 356 74 309 319 329 325 325 329 348 317 354 322 338 332 317 295 288 289
20 26 27 23 37 64 86 95 130 130 117 74 39 18 54 70 110 61 38 38 10 348 331 347 349 359 342 348 345 336 353 347 354 346 315 343 346 329 335 335 325 321 314 305 289
12 22 29 27 58 76 93 98 144 169 184 334 348 1 65 88 171 19 12 25 15 307 313 335 314 310 294 323 343 4 56 38 302 331 301 35 295 292 324 313 308 311 311 308 308
4 4 25 39 80 83 81 93 139 225 246 279 316 352 120 192 225 127 354 19 16 0 311 297 300 237 81 76 3 4 252 269 298 247 271 137 281 279 305 310 298 301 299 299 303
2 347 7 52 105 59 24 7 225 254 264 286 287 306 292 78 214 294 299 324 319 346 16 41 118 53 32 67 278 263 276 260 264 269 245 289 268 278 297 299 291 295 298 302 303
359 347 249 98 111 68 52 20 20 68 286 263 281 274 284 289 282 297 270 248 311 50 33 16 58 205 246 202 216 234 228 254 239 251 311 269 290 289 291 293 288 302 322 330 321
356 349 193 164 129 82 56 51 14 321 296 286 263 256 259 267 274 283 188 208 75 316 326 15 285 224 258 251 239 235 283 291 293 271 291 286 294 284 284 277 319 353 348 346 339
360 1 166 144 111 69 59 28 3 343 320 298 225 228 246 249 241 257 198 193 171 249 234 153 244 292 276 328 322 301 256 270 272 298 242 297 287 268 306 324 10 0 350 351 350
5 18 157 146 93 126 48 24 343 312 57 287 231 280 238 215 259 278 233 215 157 221 247 232 263 262 321 284 255 302 253 274 288 320 303 114 293 300 312 331 21 355 357 356 353
3 19 168 167 121 47 350 328 342 298 52 211 161 352 312 206 301 254 210 197 198 218 121 247 249 287 269 205 266 243 304 256 263 240 15 320 351 268 352 335 350 341 351 8 20
2 21 153 161 149 321 316 304 315 45 45 24 85 358 357 286 287 273 157 237 293 178 233 246 264 208 195 194 20 301 329 307 36 61 35 230 84 269 299 279 318 340 354 5 21
6 42 147 174 306 324 331 308 41 95 336 359 343 350 83 331 8 27 10 349 272 337 326 327 291 87 67 26 346 22 34 332 343 354 237 234 311 247 291 199 61 312 355 1 12
15 64 120 114 7 349 349 49 76 333 13 15 344 350 98 19 357 2 11 358 26 68 335 58 329 342 67 148 252 296 135 149 290 277 292 288 245 253 216 195 232 307 343 5 5
0 347 305 352 352 343 347 64 197 329 308 337 333 59 353 358 7 21 341 247 151 81 113 301 260 270 282 190 121 291 241 190 239 227 324 250 297 305 51 354 310 307 328 323 337
346 338 353 309 328 335 67 226 261 334 320 65 112 102 315 307 24 25 310 258 217 221 153 270 291 243 283 68 207 186 170 6 4 297 284 292 288 264 198 263 283 313 319 317 296
353 36 106 338 320 342 106 246 303 354 14 190 208 247 235 249 135 226 251 306 28 360 317 269 164 260 48 202 247 282 283 102 168 171 212 306 270 227 235 234 287 300 322 316 294
2 39 349 327 5 30 32 297 312 311 351 301 154 194 203 200 239 237 233 233 44 93 329 300 219 272 270 255 255 168 203 158 142 257 220 253 266 258 269 244 285 309 306 312 314
342 313 23 2 71 346 326 312 306 353 340 345 347 346 55 132 336 224 245 264 19 41 8 332 308 311 308 354 357 179 200 173 125 57 251 263 273 259 324 329 316 337 324 308 328
350 355 3 57 77 67 6 301 334 336 40 13 29 48 11 314 240 282 267 295 337 320 299 291 200 207 258 271 245 266 243 224 199 223 277 245 277 284 295 313 319 330 343 344 348
11 36 10 319 354 344 286 310 341 356 4 27 32 38 309 296 301 273 329 319 287 284 242 106 241 225 261 268 270 261 267 249 220 237 233 277 271 280 280 264 271 299 321 334 336
22 8 344 308 321 336 4 22 8 337 308 3 39 310 308 269 212 286 272 232 228 293 73 337 277 291 279 268 265 271 270 271 256 251 253 261 267 273 302 231 274 291 318 319 313
21 3 324 323 346 38 30 318 22 0 72 67 10 336 301 252 298 284 274 269 254 269 242 216 186 12 268 350 318 290 264 260 234 217 217 242 259 215 263 281 297 303 307 302 309